#timestamp,LO_Frequency,Hit,StdDev 
1514703615.6,286047007.1,N
1514703635.4,286047007.9,N
1514703655.2,286047006.3,N
1514703675.1,286047004.5,N
1514703676.0,286047004.5,N
1514703695.8,286047007.6,N
1514703715.6,286047007.8,Y
1514703735.5,286047002.4,P
1514703755.3,286047000.2,N
1514703775.1,286046998.7,N
1514703795.9,286047000.2,N
1514703815.7,286047002.1,N
1514703835.5,286047005.8,Y
1514703855.4,286047007.6,P
1514703875.2,286047008.6,N
1514703895.0,286047012.1,P
1514703895.9,286047012.1,Y
1514703915.8,286047007.3,P
1514703935.6,286047008.8,P
1514703955.4,286047010.0,P
1514703975.3,286047011.7,Y
1514703995.1,286047003.9,P
1514704015.8,286047003.1,N
1514704035.7,286047005.7,N
1514704055.5,286047005.4,N
1514704075.3,286047009.0,Y
1514704095.2,286047001.7,P
1514704115.9,286046999.7,N
1514704135.7,286047004.6,N
1514704155.6,286047002.9,N
1514704175.4,286047007.5,Y
1514704195.2,286047001.7,P
1514704215.1,286047001.8,P
1514704216.0,286047001.8,P
1514704235.8,286047003.6,Y
1514704255.6,286047003.4,P
1514704275.5,286047006.0,P
1514704295.3,286047004.1,N
1514704315.1,286047002.7,N
1514704335.9,286047000.1,N
1514704355.7,286047004.0,N
1514704375.5,286046999.7,N
1514704395.4,286046998.8,N
1514704415.2,286046999.8,N
1514704435.0,286047006.0,N
1514704435.9,286047006.0,N
1514704455.8,286047007.4,N
1514704475.6,286047006.7,N
1514704495.4,286047006.9,N
1514704515.2,286047004.7,N
1514704535.1,286047008.6,Y
1514704536.0,286047008.6,P
1514704555.8,286047006.1,N
1514704575.6,286047006.2,P
1514704595.5,286046999.7,N
1514704615.3,286046996.6,N
1514704635.1,286047001.4,N
1514704655.9,286047010.5,N
1514704675.7,286047014.8,Y
1514704695.5,286047012.6,P
1514704715.4,286047009.8,N
1514704735.2,286047008.1,N
1514704755.0,286047006.3,N
1514704755.9,286047006.3,N
1514704775.8,286047006.8,N
1514704795.6,286047007.7,N
1514704815.4,286047005.8,N
1514704835.3,286047007.3,Y
1514704855.1,286047001.3,P
1514704875.8,286047005.4,N
1514704895.7,286047005.3,N
1514704915.5,286047005.9,N
1514704935.3,286047005.0,N
1514704955.2,286047006.8,Y
1514704975.9,286047003.5,P
1514704995.7,286047004.0,P
1514705015.6,286047002.0,P
1514705035.4,286047001.2,N
1514705055.2,286046998.2,N
1514705075.1,286047001.6,N
1514705076.0,286047001.6,N
1514705095.8,286047003.6,N
1514705115.6,286047002.5,N
1514705135.4,286047000.4,N
1514705155.3,286047002.6,N
1514705175.1,286047005.2,N
1514705195.9,286047007.5,Y
1514705215.7,286047003.8,P
1514705235.5,286047000.0,N
1514705255.3,286046998.2,N
1514705275.2,286047002.3,N
1514705295.0,286046998.8,N
1514705295.9,286046998.8,N
1514705315.7,286046999.3,N
1514705335.6,286046996.6,N
1514705355.4,286046997.4,N
1514705375.2,286046995.0,N
1514705395.1,286046993.7,N
1514705396.0,286046993.7,N
1514705415.8,286046995.4,N
1514705435.6,286046994.9,N
1514705455.5,286046996.0,N
1514705475.3,286046994.6,N
1514705495.1,286046997.8,N
1514705515.8,286046997.1,N
1514705535.7,286046996.8,N
1514705555.5,286046997.3,N
1514705575.3,286046998.4,N
1514705595.2,286046998.6,N
1514705615.9,286046998.2,N
1514705635.7,286046997.8,N
1514705655.6,286046993.4,N
1514705675.4,286046993.5,N
1514705695.2,286046994.3,N
1514705715.1,286046994.5,N
1514705716.0,286046994.5,N
1514705735.0,286046992.4,N
1514705735.9,286046992.4,N
1514705755.8,286046995.7,N
1514705775.6,286046993.1,N
1514705795.4,286046993.0,N
1514705815.3,286046992.7,Y
1514705835.1,286046993.6,P
1514705836.0,286046993.6,P
1514705855.8,286046997.8,N
1514705875.7,286046999.8,N
1514705895.5,286047000.0,N
1514705915.3,286047002.0,N
1514705935.2,286047000.5,N
1514705955.9,286046998.9,N
1514705975.7,286046999.5,N
1514705995.5,286046998.5,N
1514706015.4,286047001.2,N
1514706035.2,286047000.0,N
1514706055.0,286046997.9,N
1514706055.9,286046997.9,N
1514706075.8,286046997.5,N
1514706095.6,286046997.7,N
1514706115.4,286046995.1,N
1514706135.3,286047001.2,N
1514706155.1,286046997.0,N
1514706156.0,286046997.0,N
1514706175.8,286046996.8,N
1514706195.7,286046995.8,N
1514706215.5,286046995.3,N
1514706235.3,286046995.1,N
1514706255.2,286046997.2,N
1514706275.9,286047002.3,N
1514706295.7,286046998.7,N
1514706315.5,286047000.4,N
1514706335.4,286046999.0,N
1514706355.2,286046995.5,N
1514706375.0,286046997.1,N
1514706375.9,286046997.1,N
1514706395.8,286047000.4,N
1514706415.6,286046998.4,N
1514706435.4,286046996.6,N
1514706455.3,286046998.8,N
1514706475.1,286047000.7,N
1514706476.0,286047000.7,N
1514706495.8,286047002.4,N
1514706515.7,286047003.0,N
1514706535.5,286047006.0,N
1514706555.3,286047003.1,N
1514706575.2,286047003.7,N
1514706595.9,286047004.8,N
1514706615.7,286047006.7,N
1514706635.6,286047013.9,Y
1514706655.4,286047017.9,P
1514706675.2,286047022.4,N
1514706695.0,286047023.9,N
1514706696.0,286047023.9,N
1514706715.8,286047026.0,N
1514706735.6,286047029.8,Y
1514706755.5,286047007.9,P
1514706775.3,286047005.2,N
1514706795.1,286047004.0,N
1514706815.8,286047005.8,N
1514706835.7,286047005.9,N
1514706855.5,286047006.8,N
1514706875.3,286047004.6,N
1514706895.2,286047007.5,N
1514706915.9,286047004.7,N
1514706935.7,286047005.5,N
1514706955.6,286047005.1,N
1514706975.4,286047003.6,N
1514706995.2,286047003.0,N
1514707015.0,286047002.3,N
1514707016.0,286047002.3,N
1514707035.8,286046998.6,N
1514707055.6,286046997.6,N
1514707075.4,286047000.9,N
1514707095.3,286046998.0,N
1514707115.1,286046993.6,N
1514707135.8,286046994.5,N
1514707155.7,286046993.9,N
1514707175.5,286046994.5,N
1514707195.3,286046992.5,N
